Terminal Aerodrome Forecast
Issued by NWS

Home | Current Version | Previous Version | Text Only | Print | Product List | Glossary On
Versions: 1 2 3 4 5 6 7 8 9 10 11 12 13 14 15 16 17 18 19 20 21 22 23 24
000
FTUS42 KFFC 051459 AAC
TAFFTY
TAF AMD
KFTY 051459Z 0515/0612 32010G20KT 5SM -RA BKN005 OVC012
     FM051600 32011G21KT 5SM -RA SCT005 OVC007
     FM052100 32010G20KT P6SM VCSH OVC012
     FM060100 34010KT P6SM OVC022
     FM061000 34007KT P6SM BKN027=

USA.gov is the U.S. government's official web portal to all federal, state and local government web resources and services.